TimeEDT,TemperatureF,Dew PointF,Humidity,Sea Level PressureIn,VisibilityMPH,Wind Direction,Wind SpeedMPH,Gust SpeedMPH,PrecipitationIn,Events,Conditions,WindDirDegrees,DateUTC
12:58 AM,45.5,34.2,65,30.21,10.0,Calm,Calm,-,N/A,,Mostly Cloudy,0,2013-03-30 04:58:00
1:58 AM,45.7,34.3,65,30.21,10.0,WSW,3.5,-,N/A,,Scattered Clouds,240,2013-03-30 05:58:00
2:58 AM,43.5,34.2,70,30.21,10.0,Variable,1.2,-,N/A,,Overcast,0,2013-03-30 06:58:00
3:58 AM,45.1,34.5,66,30.20,10.0,West,2.3,-,N/A,,Overcast,270,2013-03-30 07:58:00
4:58 AM,46.9,34.0,61,30.20,10.0,West,2.3,-,N/A,,Overcast,270,2013-03-30 08:58:00
5:58 AM,46.8,35.1,64,30.21,10.0,WNW,2.3,-,N/A,,Overcast,300,2013-03-30 09:58:00
6:58 AM,46.4,36.3,68,30.24,10.0,West,4.6,-,N/A,,Overcast,260,2013-03-30 10:58:00
7:58 AM,48.2,40.6,75,30.25,10.0,West,4.6,-,N/A,,Overcast,270,2013-03-30 11:58:00
8:18 AM,48.2,42.8,82,30.25,10.0,WSW,5.8,-,N/A,,Light Drizzle,240,2013-03-30 12:18:00
8:47 AM,48.2,44.6,87,30.24,10.0,WSW,2.3,-,N/A,,Overcast,240,2013-03-30 12:47:00
8:58 AM,48.6,44.1,84,30.25,10.0,Calm,Calm,-,0.00,,Overcast,0,2013-03-30 12:58:00
9:58 AM,50.7,44.6,80,30.25,10.0,West,2.3,-,N/A,,Mostly Cloudy,260,2013-03-30 13:58:00
10:58 AM,54.0,44.4,70,30.24,10.0,Variable,2.3,-,N/A,,Mostly Cloudy,0,2013-03-30 14:58:00
11:58 AM,60.1,42.6,53,30.21,10.0,Calm,Calm,-,N/A,,Partly Cloudy,350,2013-03-30 15:58:00
12:58 PM,63.3,40.6,43,30.19,10.0,SW,4.6,-,N/A,,Mostly Cloudy,230,2013-03-30 16:58:00
1:58 PM,64.2,40.6,42,30.16,10.0,Variable,1.2,-,N/A,,Partly Cloudy,0,2013-03-30 17:58:00
2:58 PM,64.6,39.6,40,30.13,10.0,Variable,4.6,-,N/A,,Mostly Cloudy,0,2013-03-30 18:58:00
3:58 PM,66.6,39.2,37,30.11,10.0,WSW,4.6,-,N/A,,Mostly Cloudy,250,2013-03-30 19:58:00
4:58 PM,64.9,41.4,42,30.11,10.0,South,8.1,-,N/A,,Mostly Cloudy,190,2013-03-30 20:58:00
5:58 PM,64.4,43.5,47,30.10,10.0,SSW,8.1,-,N/A,,Scattered Clouds,200,2013-03-30 21:58:00
6:59 PM,63.0,44.1,50,30.11,10.0,SW,9.2,-,N/A,,Clear,220,2013-03-30 22:59:00
7:59 PM,60.1,44.6,57,30.11,10.0,South,3.5,-,N/A,,Clear,180,2013-03-30 23:59:00
8:00 PM,59.0,44.6,59,30.10,10.0,South,2.3,-,N/A,,Light Drizzle,190,2013-03-31 00:00:00
8:01 PM,59.0,44.6,59,30.10,10.0,South,2.3,-,N/A,,Clear,190,2013-03-31 00:01:00
8:05 PM,59.0,44.6,59,30.11,10.0,South,2.3,-,N/A,Rain,Light Rain,180,2013-03-31 00:05:00
8:07 PM,59.0,44.6,59,30.11,10.0,South,2.3,-,N/A,,Clear,170,2013-03-31 00:07:00
8:58 PM,58.8,44.8,60,30.13,10.0,South,2.3,-,0.00,,Mostly Cloudy,170,2013-03-31 00:58:00
9:58 PM,58.1,45.3,62,30.13,10.0,South,4.6,-,N/A,,Scattered Clouds,170,2013-03-31 01:58:00
10:58 PM,56.1,45.5,68,30.13,10.0,Variable,3.5,-,N/A,,Clear,0,2013-03-31 02:58:00
11:58 PM,54.7,46.0,73,30.12,10.0,Variable,5.8,-,N/A,,Clear,0,2013-03-31 03:58:00